GFSCGP_700_rhum_000.txt.gz
RH
22 33 28 29 30 28 25 25 24 26 25 26 28 28 25 21 20 20 22 25 27 31 32 33 39 38 25 24 25 30 32 32 34 41 42 41 43 47 51 53 60 57 63 62
24 33 32 15 28 27 22 23 28 29 30 31 30 27 24 22 22 21 28 34 36 32 30 32 34 28 30 31 31 33 40 42 44 47 46 46 48 50 55 57 61 61 58 52
23 36 19 23 28 31 24 34 35 36 36 26 26 20 22 22 27 24 30 31 38 34 34 34 33 33 34 35 37 40 40 44 48 49 51 55 57 58 58 60 64 58 64 62
29 30 16 30 29 32 30 34 29 43 40 34 31 23 19 23 25 29 34 38 36 38 35 32 35 33 35 34 33 36 41 44 49 54 52 51 58 61 63 63 63 70 82 84
40 34 18 29 35 31 38 35 42 40 38 37 29 25 20 22 22 25 30 34 36 31 32 33 36 37 39 44 48 47 49 52 57 57 56 56 54 58 66 66 64 71 76 76
27 24 18 20 17 41 42 44 37 36 38 44 32 33 27 22 24 25 30 34 37 35 41 46 45 57 60 64 67 60 56 57 58 64 67 66 64 62 68 71 68 59 56 60
35 34 38 35 36 40 46 48 48 61 58 54 33 34 31 28 26 29 30 30 33 45 55 62 64 69 71 66 71 76 77 76 77 82 72 76 74 72 74 75 72 68 77 85
44 38 41 46 45 48 52 53 54 69 60 53 43 35 26 26 27 29 32 34 46 56 62 62 71 85 83 81 78 81 85 89 85 91 93 93 84 88 86 82 81 84 92 95
60 46 48 50 48 45 52 56 59 57 59 66 56 39 33 31 30 34 44 49 51 53 64 75 83 92 92 89 79 82 83 63 60 62 73 89 97 94 93 90 95 97 96 96
66 67 58 58 61 57 57 60 61 65 88 65 41 44 39 34 38 39 48 50 55 64 70 79 82 88 91 82 76 73 81 70 61 66 70 70 80 88 93 98 98 97 94 96
72 78 65 59 56 57 53 55 59 60 59 69 74 48 44 44 46 52 56 64 67 73 80 82 87 91 90 86 71 73 78 67 54 52 65 64 79 93 98 98 96 95 96 96
83 78 88 58 59 57 56 59 58 59 73 66 72 69 51 49 49 54 54 56 61 67 77 79 81 86 84 72 68 81 70 65 51 59 61 68 85 94 95 94 96 94 96 97
68 82 78 55 56 63 64 60 58 59 61 82 97 71 60 57 56 54 57 66 72 76 80 81 82 87 85 76 74 69 60 61 63 64 76 86 93 96 97 96 98 98 96 96
65 77 84 81 76 74 72 68 63 64 64 64 65 63 58 54 54 58 61 74 79 83 85 94 82 77 79 76 69 70 68 67 70 83 94 88 90 91 96 96 96 97 96 94
80 84 88 85 85 86 86 78 69 63 61 60 60 58 54 53 55 59 64 72 86 86 87 67 74 87 76 67 62 60 58 74 94 100 97 98 91 91 98 91 96 95 92 93
90 95 94 86 88 92 81 69 55 60 64 62 62 60 55 56 58 67 93 96 90 84 74 72 88 83 64 69 63 49 71 98 98 93 94 99 100 100 96 98 95 93 80 58
95 95 94 95 85 90 86 53 61 70 62 62 58 56 58 61 72 89 81 79 76 84 97 90 82 74 70 56 52 59 100 99 97 96 98 98 97 96 95 94 94 94 90 31
85 85 88 99 95 94 61 57 51 64 69 69 60 60 68 78 75 69 74 90 89 91 88 80 72 72 59 56 54 63 97 99 96 98 97 96 94 93 94 98 99 93 33 22
82 86 91 99 95 81 88 56 66 63 69 66 86 89 92 86 75 76 94 88 98 90 80 72 61 61 58 62 61 93 95 95 100 97 96 96 89 99 100 100 60 28 22 18
67 71 78 84 97 89 69 61 75 82 81 73 85 92 99 89 98 90 92 87 90 90 70 61 58 60 67 66 75 90 91 94 98 94 85 80 94 99 76 36 25 20 19 34
84 86 84 82 100 88 66 73 92 91 94 96 96 98 86 96 95 88 88 87 95 74 56 60 62 70 70 75 91 99 98 98 95 89 95 90 68 43 29 20 18 24 36 39
84 91 97 99 98 90 77 85 95 96 97 98 88 91 89 95 99 95 94 90 81 62 52 59 72 76 80 97 98 98 95 89 97 98 83 52 34 19 17 18 26 37 40 37
96 80 87 89 83 65 70 77 89 93 91 95 97 100 100 92 95 86 68 70 57 51 60 68 82 81 99 100 97 97 96 96 86 60 37 24 16 18 19 29 37 37 38 35
98 80 87 96 64 59 75 76 84 81 99 98 99 94 97 96 78 66 55 58 53 61 64 78 81 100 99 96 97 96 93 73 47 32 18 16 18 18 24 36 41 38 35 33
97 98 93 92 59 76 73 82 89 96 93 98 99 90 77 87 60 46 47 53 57 67 79 81 97 98 97 96 95 81 64 43 29 20 18 18 20 25 32 46 45 40 32 24
96 90 100 75 83 95 68 61 93 96 98 100 95 92 70 49 41 45 51 63 73 80 83 98 100 97 90 74 64 47 34 22 20 18 18 22 27 32 42 54 51 50 29 17

GFSCGP_700_rhum_003.txt.gz
RH
18 34 28 15 26 28 21 22 26 26 22 25 21 26 25 27 22 21 21 23 23 26 28 24 31 38 41 38 31 34 35 37 40 41 44 46 48 48 48 50 54 56 56 58
24 29 34 20 25 27 19 29 31 26 22 29 29 22 21 25 24 21 11 14 16 19 21 25 29 32 34 34 38 40 42 43 44 47 51 52 52 51 51 54 58 60 61 63
25 31 28 13 29 29 21 34 33 30 32 25 28 20 20 24 23 21 19 24 22 21 23 25 28 30 32 36 37 40 45 47 54 55 54 53 55 56 55 59 64 66 67 68
30 35 31 19 31 32 19 25 30 35 42 40 37 34 23 23 22 23 26 32 32 32 27 31 35 39 38 44 45 48 46 49 53 54 55 58 56 58 62 62 64 67 66 67
32 24 27 18 22 33 38 45 32 34 38 41 33 36 25 23 24 25 31 35 36 35 33 39 42 44 48 56 58 60 58 56 54 52 55 56 63 64 62 64 67 68 68 72
39 35 32 36 28 43 46 45 26 38 38 46 39 34 32 28 29 29 35 36 36 36 45 48 49 53 62 64 67 71 71 69 68 64 78 79 74 71 79 76 75 74 76 76
40 37 38 40 38 32 38 45 53 55 64 68 35 29 23 34 30 29 30 32 34 44 48 51 54 67 73 77 76 83 82 78 73 60 78 87 94 92 95 97 96 92 85 88
48 47 47 48 48 41 55 55 61 77 85 67 40 41 34 35 32 45 47 50 49 51 58 66 72 77 79 76 73 77 72 79 75 53 55 65 72 82 94 96 98 98 98 98
59 50 46 56 51 56 54 61 60 59 58 67 51 41 28 40 41 46 53 54 58 63 67 76 76 82 84 84 85 84 79 69 64 58 59 57 47 48 61 78 94 98 98 97
69 68 60 58 54 58 58 57 59 61 91 87 52 46 39 39 44 50 54 56 58 60 64 71 75 78 83 72 73 83 64 59 62 64 61 56 51 59 77 93 98 98 97 97
77 75 46 43 59 61 54 53 61 73 82 88 98 65 47 40 50 56 51 61 76 77 72 80 88 95 88 83 77 60 64 62 56 55 50 47 42 59 80 92 97 96 98 97
70 63 73 52 56 58 60 66 60 68 86 76 80 80 42 47 49 49 65 82 61 68 72 76 76 77 78 78 73 68 70 57 53 47 42 40 53 72 83 95 97 97 96 94
64 68 69 48 59 58 62 52 59 70 66 70 80 72 60 60 59 56 53 56 62 67 68 72 79 80 74 70 75 81 60 54 52 43 41 49 64 79 82 86 85 94 86 92
74 70 69 70 69 85 83 78 56 74 84 77 73 68 62 60 55 58 58 60 62 66 66 71 77 65 66 67 61 55 57 52 45 46 62 73 76 84 82 79 83 80 94 94
82 83 82 84 90 84 82 80 63 71 68 77 67 70 66 63 59 59 61 61 60 72 68 73 72 70 72 61 54 53 41 39 52 84 96 93 93 90 84 85 89 99 95 85
80 89 90 85 72 82 91 57 50 62 68 64 61 64 62 63 60 62 63 60 71 71 80 87 86 75 66 53 44 38 48 55 62 100 100 97 95 96 100 98 96 94 92 88
55 87 92 92 84 94 89 43 57 65 60 62 71 74 71 71 77 84 82 90 75 87 86 74 74 60 49 44 44 50 50 55 63 99 100 99 100 99 97 91 74 96 91 65
62 61 80 93 93 97 59 55 50 66 71 64 60 68 69 75 86 91 92 88 82 82 71 72 58 48 40 45 56 51 54 63 75 93 91 92 99 89 78 86 97 98 46 21
72 84 85 90 100 83 70 56 64 65 67 77 83 85 77 89 74 62 75 83 92 84 81 55 44 40 55 55 56 61 71 77 90 85 81 87 84 90 92 100 90 36 17 15
60 64 73 79 98 90 58 66 70 85 82 82 94 95 90 99 98 83 86 93 82 80 57 47 51 55 52 74 72 84 100 100 92 94 100 98 98 98 98 50 22 17 16 18
75 73 77 74 99 79 46 77 77 77 83 95 95 96 100 100 99 98 97 74 70 59 44 52 55 53 54 66 78 100 96 98 98 97 96 96 96 75 34 16 18 18 20 28
76 78 83 93 95 86 66 63 67 81 85 100 95 98 98 97 88 98 95 83 62 42 44 42 45 51 62 72 94 97 98 97 98 96 92 71 41 20 17 18 20 23 29 36
91 78 70 79 74 58 57 67 67 79 81 78 97 93 100 98 98 96 82 54 41 46 40 38 43 61 71 91 100 98 97 96 92 72 47 29 19 19 20 21 21 26 41 42
97 88 83 84 64 57 64 53 54 64 84 83 79 98 95 100 94 75 52 33 41 46 43 54 69 74 83 99 99 94 88 72 55 35 24 21 20 22 26 29 34 45 54 50
98 99 73 93 70 75 65 70 86 81 86 86 99 99 96 87 78 52 37 37 45 58 65 81 83 93 96 94 91 82 62 44 25 21 23 24 29 34 37 44 43 63 63 57
97 80 100 92 80 95 79 99 100 94 97 98 97 86 91 85 80 48 37 50 55 65 90 100 98 96 96 94 95 55 32 20 22 26 31 35 44 47 53 43 48 73 68 58

GFSCGP_700_rhum_009.txt.gz
RH
24 28 33 33 25 23 26 30 22 29 28 22 23 24 20 21 22 24 24 22 17 24 26 28 26 31 35 41 44 44 48 53 52 49 48 49 51 45 43 42 46 50 52 56
23 25 33 27 18 28 31 30 21 17 29 29 32 24 22 21 24 24 22 18 19 21 23 26 28 32 42 41 40 40 47 56 63 59 55 54 60 51 48 42 43 52 56 56
24 29 32 23 27 26 23 24 29 35 33 39 37 26 28 26 25 24 24 19 24 24 31 35 37 39 48 52 49 55 59 64 67 67 67 66 71 70 56 48 40 40 48 52
28 29 34 36 33 33 30 31 31 34 40 42 36 35 33 28 29 28 28 28 33 36 39 39 45 53 56 56 57 62 64 63 63 64 66 67 76 80 70 52 49 44 48 65
34 37 35 36 42 40 35 28 32 32 42 43 39 38 38 36 32 32 31 32 38 40 43 48 54 56 57 59 64 66 65 68 78 77 82 80 84 75 72 53 49 43 41 48
42 38 38 44 43 44 39 30 32 41 44 47 46 43 42 36 35 34 35 38 46 52 53 55 57 58 61 65 67 70 72 71 73 78 87 86 81 78 61 58 56 45 41 46
47 42 46 48 45 46 50 29 38 51 65 66 46 44 46 47 50 50 50 53 56 58 60 59 61 64 68 70 74 78 81 82 84 85 86 88 73 60 59 54 45 41 38 38
40 44 47 50 52 59 56 53 58 67 85 67 46 47 54 52 59 58 60 66 64 62 65 68 72 71 74 79 81 81 83 86 86 82 72 63 61 56 48 40 32 31 32 36
45 42 50 56 49 58 61 61 61 62 66 78 56 52 49 43 43 59 62 59 67 68 68 75 71 71 76 76 78 79 79 77 72 63 63 60 54 35 23 20 22 26 33 45
56 52 43 48 55 60 62 64 63 66 85 90 63 50 48 50 54 47 59 66 69 73 77 75 73 74 73 78 81 83 78 68 64 61 53 41 32 24 20 22 28 44 71 86
50 48 41 54 58 62 60 64 72 73 77 92 98 68 55 50 68 69 62 66 72 73 74 70 68 73 84 86 74 64 60 61 58 51 37 20 14 13 12 19 37 73 94 98
54 50 43 62 60 60 63 73 62 73 77 77 82 75 56 66 65 68 66 65 69 72 73 77 83 83 79 89 78 66 60 55 44 22 15 18 14 11 19 34 59 99 98 96
59 57 54 60 65 58 49 49 59 74 89 85 87 69 52 63 65 64 68 73 74 72 75 83 96 95 87 89 82 65 51 29 16 18 18 13 11 20 40 69 98 96 97 97
62 65 63 65 58 58 46 59 66 85 100 94 82 82 69 72 68 76 78 79 80 85 91 94 95 82 82 76 60 51 32 19 25 27 21 16 21 36 56 98 100 98 96 97
67 63 53 53 69 71 51 53 46 62 61 100 64 68 55 70 74 80 87 96 98 88 78 80 81 84 85 72 63 39 33 40 34 22 22 29 50 74 98 97 98 98 97 97
59 57 47 35 48 52 47 40 51 43 48 56 62 56 64 67 86 95 96 97 90 78 70 71 87 97 83 69 57 55 48 33 24 22 44 66 72 96 95 97 97 95 94 93
49 51 71 76 65 74 49 48 50 58 56 60 65 61 66 72 80 75 60 69 71 63 76 76 100 99 74 76 74 38 26 24 27 43 67 83 89 86 86 86 85 94 96 100
43 61 76 82 78 93 44 50 52 52 49 53 65 65 72 81 77 67 79 80 76 87 98 100 100 96 89 44 29 26 23 31 65 74 96 92 89 90 93 100 100 100 98 82
59 74 83 90 98 74 61 54 58 63 66 58 66 70 84 97 92 69 73 93 99 97 84 96 92 65 37 28 26 25 38 54 99 91 97 98 98 100 100 98 95 84 56 22
56 60 66 73 97 96 57 61 66 72 85 80 82 95 98 98 98 90 87 97 91 98 89 82 62 49 28 28 35 55 65 78 100 98 96 96 96 91 79 53 27 20 20 19
64 72 74 78 84 77 58 62 66 85 83 96 96 96 100 100 99 94 98 97 98 97 72 43 43 39 34 47 66 76 71 85 93 92 88 69 49 32 22 20 21 22 25 30
80 89 85 85 95 80 62 72 87 91 98 98 87 87 97 100 100 90 97 98 92 60 34 38 23 22 38 64 89 87 86 88 88 91 74 47 26 22 23 22 28 41 43 45
95 76 81 83 80 80 77 89 91 93 96 84 94 100 98 100 100 99 97 90 69 25 22 25 36 39 60 72 100 98 96 95 92 88 63 28 25 26 23 22 23 34 41 52
97 90 96 96 76 73 88 86 93 90 85 91 98 97 95 99 97 93 81 32 23 23 36 50 55 63 72 92 100 98 97 93 86 83 40 30 29 26 25 20 24 38 60 66
98 98 98 91 92 82 83 85 96 99 98 97 96 96 97 96 89 75 56 27 27 29 42 69 69 75 74 86 85 82 84 88 82 52 37 34 29 27 20 23 45 70 81 77
80 79 96 96 90 100 94 100 98 97 100 100 100 96 89 45 31 25 20 19 21 24 41 77 87 82 81 75 79 86 86 80 69 42 38 32 30 21 25 48 78 94 86 83

GFSCGP_700_rhum_015.txt.gz
RH
23 23 26 27 17 16 21 24 25 22 22 22 25 30 25 22 20 22 26 24 23 25 27 29 30 32 32 40 52 48 48 50 48 59 58 61 68 70 62 68 69 69 78 77
20 24 29 24 21 26 27 25 24 27 27 25 31 31 26 26 26 26 25 24 20 25 31 33 33 33 37 50 58 60 58 58 59 61 68 73 77 80 81 81 78 78 83 77
26 30 30 30 31 31 32 31 31 32 27 30 35 34 31 27 29 31 28 24 24 31 34 36 40 44 53 57 62 62 64 64 68 72 76 79 82 86 86 86 89 77 68 61
28 29 33 34 34 34 29 31 32 35 39 42 38 34 36 31 32 32 32 27 32 36 41 48 51 55 60 63 66 68 69 72 74 75 79 81 84 87 86 88 83 64 55 48
28 35 38 36 40 38 37 36 34 35 39 46 43 39 44 39 36 35 36 37 41 45 48 54 56 61 64 66 72 72 73 76 76 77 80 82 84 87 92 94 69 54 49 43
41 40 39 42 46 44 43 35 42 48 50 51 50 46 57 47 42 39 42 46 51 55 59 60 57 60 65 69 71 76 76 77 79 81 85 91 89 93 83 72 68 55 38 28
41 43 46 47 42 46 45 34 38 48 56 54 50 49 63 55 50 50 52 57 60 61 59 58 60 62 69 73 75 78 82 83 84 88 91 98 95 89 84 66 39 46 32 27
39 46 44 44 44 50 50 45 49 54 63 61 51 56 66 54 55 62 61 59 58 56 58 61 66 69 73 78 83 85 90 95 94 97 95 94 88 74 51 50 50 38 36 32
42 47 44 45 50 56 54 53 58 60 71 76 55 60 62 59 58 61 59 58 57 58 58 66 76 78 82 84 88 95 97 96 75 76 87 76 76 64 37 43 43 38 28 21
44 46 46 59 61 61 60 61 59 58 75 69 58 60 51 56 62 64 55 52 50 56 68 84 87 89 91 94 96 93 88 82 77 87 90 84 46 43 60 39 29 26 20 15
38 38 42 45 60 65 67 67 67 63 74 83 92 62 42 46 49 63 65 57 67 76 87 90 88 91 93 90 81 72 70 71 84 92 92 85 65 52 30 22 18 19 23 34
35 31 30 35 63 67 67 65 61 57 62 73 80 68 44 49 54 65 56 62 63 68 80 83 78 71 67 66 70 72 70 76 88 89 89 79 54 44 30 22 19 26 46 73
42 37 32 36 64 63 62 57 52 74 87 84 85 62 49 52 62 64 65 66 67 85 90 70 63 71 72 70 81 84 83 97 100 94 59 35 25 21 22 32 52 64 75 96
46 36 36 33 31 35 41 37 47 71 94 81 73 61 40 53 66 72 74 77 90 87 74 68 71 71 85 92 99 87 79 73 46 22 17 14 15 21 41 70 66 85 92 95
40 36 36 36 33 34 35 41 51 64 62 95 51 60 47 66 71 73 74 77 75 80 76 68 64 66 78 100 86 68 54 44 34 24 15 13 21 44 77 84 81 100 100 100
43 45 41 42 40 44 40 38 49 53 57 61 63 55 60 64 71 75 94 96 92 82 69 66 65 74 93 95 66 35 28 22 14 14 21 35 62 63 83 85 81 96 95 96
41 42 50 50 49 52 44 49 44 48 49 53 56 55 62 67 78 92 95 89 85 74 65 73 95 88 96 70 44 27 14 14 23 28 45 73 77 74 77 78 75 69 42 25
39 50 63 65 63 72 44 53 56 56 53 58 59 63 63 64 87 90 79 78 80 76 85 100 87 68 51 26 12 11 13 16 36 50 70 94 95 89 82 83 65 30 23 23
46 53 73 87 97 72 50 56 58 67 67 63 68 70 76 85 78 91 88 82 93 83 94 76 53 26 14 13 11 9 12 32 54 64 84 97 92 90 86 74 38 26 25 24
50 54 69 95 100 93 54 61 72 73 74 81 94 93 96 96 91 94 99 98 97 94 64 36 18 16 15 12 11 13 30 61 65 85 100 100 98 81 68 45 30 29 26 27
62 66 73 88 100 78 67 70 74 92 96 99 98 95 100 99 99 98 96 94 93 57 33 18 18 18 16 12 12 16 46 71 69 83 100 95 79 69 49 35 34 29 29 24
76 82 87 91 90 80 70 79 94 98 97 99 96 93 90 99 98 91 95 88 70 39 29 24 22 20 17 14 15 26 68 82 81 76 75 77 82 63 39 37 35 32 22 34
83 80 91 95 85 78 79 88 99 100 96 98 98 99 100 100 94 86 78 63 44 43 38 28 26 22 18 20 29 45 84 90 90 88 88 92 75 49 42 40 34 29 49 65
75 87 94 100 76 76 79 76 89 99 100 98 96 93 87 80 79 75 73 63 63 53 36 30 27 23 21 30 48 85 95 99 97 95 95 71 53 45 43 36 34 55 74 76
78 97 97 94 68 78 77 74 100 100 100 89 91 71 58 70 83 86 77 75 62 44 35 32 29 25 24 26 54 100 100 100 98 94 63 41 40 40 37 34 57 79 81 77
92 94 99 87 94 99 91 100 98 97 96 73 50 64 90 89 84 80 78 61 43 35 36 33 28 27 27 36 79 100 100 98 94 50 37 37 37 33 31 50 71 80 81 92

GFSCGP_700_rhum_021.txt.gz
RH
27 24 21 23 23 22 18 19 19 21 28 26 24 25 27 32 31 33 33 34 34 38 54 66 36 30 33 34 35 38 49 51 52 52 53 57 53 62 64 69 72 75 75 76
20 25 30 28 27 26 26 24 23 28 30 24 28 26 30 34 35 37 39 44 50 55 52 43 34 34 34 38 46 52 57 57 59 58 56 56 60 65 69 74 83 81 78 80
23 31 20 32 32 30 30 29 35 33 32 32 30 27 30 35 38 38 42 46 49 55 59 38 35 36 39 47 53 56 58 59 60 66 66 66 68 71 74 85 84 82 85 90
30 19 35 35 37 36 30 41 40 38 33 24 30 24 31 33 39 43 48 52 55 56 48 39 42 45 51 53 57 60 63 66 67 68 67 68 72 74 93 88 89 88 82 67
35 37 40 38 43 32 38 27 42 42 36 28 27 22 34 32 36 44 54 61 65 45 43 46 46 53 57 57 56 56 60 66 69 68 70 73 82 95 93 93 77 51 62 60
39 30 44 48 44 33 36 48 43 44 37 32 32 30 32 34 41 50 61 73 70 45 48 50 54 56 53 51 55 63 70 77 82 83 86 84 85 81 67 46 44 45 52 63
39 44 51 34 45 48 44 40 37 42 39 37 39 30 46 52 55 59 68 78 55 52 55 56 54 52 57 54 64 75 84 80 73 62 55 51 50 50 53 56 54 58 66 76
34 44 48 38 45 49 48 46 50 44 39 31 40 26 41 55 61 67 69 73 68 71 60 57 55 48 60 63 72 71 53 50 49 49 50 52 56 63 57 55 60 64 62 59
40 43 44 31 45 44 49 51 49 56 58 54 27 38 53 58 64 68 71 74 82 80 58 77 89 96 91 78 72 60 58 61 57 51 50 51 54 55 49 46 41 40 38 33
40 47 45 48 30 55 46 49 54 50 60 40 21 23 28 60 59 61 62 67 78 81 84 91 94 96 92 61 60 65 72 83 63 60 59 57 53 46 37 35 33 30 24 15
41 44 46 42 50 43 49 52 54 44 49 45 38 28 42 46 51 60 59 72 82 88 92 90 90 88 100 100 100 99 84 71 64 60 61 50 39 28 23 17 10 10 14 33
18 43 43 34 45 29 53 51 51 48 38 50 63 48 50 49 58 66 68 77 86 92 90 96 99 98 99 100 100 88 74 72 63 52 39 25 17 10 7 10 14 24 45 74
21 59 41 33 54 64 56 55 57 60 66 52 60 52 51 54 60 62 65 82 88 94 94 95 97 100 100 99 88 78 77 64 51 26 15 10 7 7 7 12 26 50 85 81
23 59 48 40 36 39 41 44 43 49 61 61 54 46 44 48 59 64 69 82 87 95 96 99 100 97 86 80 81 68 57 39 24 12 8 7 7 8 10 21 48 67 75 87
34 66 57 52 45 44 44 48 48 47 49 56 58 54 52 59 69 80 85 88 92 94 99 88 70 86 89 79 70 60 29 14 10 10 9 9 10 14 37 63 80 87 83 77
33 68 32 30 52 49 53 49 49 51 58 56 56 58 60 73 72 84 88 97 96 100 81 71 100 99 95 88 100 54 20 19 22 15 13 15 16 36 74 83 93 90 84 65
46 36 45 42 37 44 58 52 52 53 59 63 63 62 64 73 87 89 95 80 100 92 80 91 91 95 100 100 93 28 37 30 25 24 52 51 24 60 73 85 94 78 64 30
38 39 46 48 58 83 64 58 58 60 62 61 60 64 76 90 92 77 91 98 98 85 89 78 87 100 99 89 86 89 73 52 91 97 96 75 44 72 87 96 97 84 55 53
41 43 50 72 73 62 64 70 68 69 65 69 76 86 95 99 76 98 97 90 86 73 69 83 90 60 50 92 99 99 99 100 99 97 97 98 87 97 98 99 100 91 100 100
41 49 66 84 91 77 64 72 84 68 74 97 97 99 96 65 68 84 76 74 54 48 89 99 98 94 95 93 96 98 97 99 98 99 96 84 100 100 96 96 85 96 100 100
47 56 70 97 99 83 71 84 71 82 91 88 95 93 80 100 98 86 68 57 87 100 96 93 94 94 92 85 86 88 90 96 99 98 93 80 95 98 100 90 88 100 100 78
60 70 73 84 99 94 76 76 94 96 86 99 96 91 75 99 77 68 98 98 93 90 86 88 93 96 83 80 92 90 88 94 92 65 68 76 98 98 97 65 98 100 53 45
70 80 85 90 84 79 85 99 99 88 98 88 98 95 99 69 81 71 94 90 85 84 86 92 93 94 93 92 95 97 98 67 32 38 65 98 99 96 80 80 63 68 34 50
71 78 91 92 79 88 97 97 98 94 98 94 84 84 62 59 63 91 90 78 74 75 71 82 91 91 94 96 96 99 93 50 58 62 100 100 98 92 42 32 44 32 47 52
71 93 92 97 95 97 92 96 94 99 89 91 78 71 61 66 92 87 77 79 67 51 84 85 95 95 97 96 100 100 68 61 68 100 100 98 86 37 23 24 30 41 49 56
55 90 95 94 100 89 93 98 93 90 94 76 70 68 75 87 87 79 62 68 88 87 93 93 90 91 95 100 88 69 65 72 95 98 98 64 38 28 21 31 38 42 50 58

GFSCGP_700_rhum_024.txt.gz
RH
25 26 24 23 21 19 18 16 15 17 23 22 19 21 24 27 29 31 30 31 31 32 41 56 69 70 59 40 34 35 37 46 55 55 56 57 58 58 59 59 64 69 74 82
20 23 27 24 14 22 20 21 21 24 26 19 24 24 26 32 36 35 37 36 39 43 47 53 64 67 56 37 36 40 47 52 56 59 62 62 62 62 62 64 76 80 91 79
29 29 12 12 27 27 24 26 34 31 29 28 27 26 29 34 39 40 43 48 55 55 52 49 49 48 38 39 45 51 53 56 57 63 66 66 67 66 67 83 84 94 89 96
30 32 29 30 31 31 27 40 39 33 31 25 26 24 29 35 40 45 49 51 55 58 64 55 37 39 41 46 52 56 56 55 54 58 64 67 69 75 82 87 88 87 77 55
32 33 35 33 41 27 35 36 24 37 35 30 25 28 30 34 39 46 55 62 66 67 75 53 47 45 46 51 54 49 46 55 62 66 71 71 65 59 55 52 47 45 44 50
37 29 40 44 33 33 27 44 38 38 36 38 28 26 37 32 38 50 64 74 77 79 62 56 55 62 53 49 50 42 45 60 75 66 51 45 46 48 45 40 42 45 50 51
36 40 46 26 42 44 40 39 41 56 49 51 37 30 44 44 46 52 66 73 72 75 76 77 68 66 71 75 55 39 39 53 57 52 60 62 59 54 50 52 50 47 42 38
33 44 43 40 38 45 44 40 51 56 62 45 35 26 49 53 45 43 58 72 78 84 85 88 86 92 95 91 78 62 50 52 57 60 59 63 60 54 53 50 43 38 31 25
34 43 30 31 34 40 45 50 41 45 55 49 24 46 52 57 62 63 66 69 75 80 86 88 94 93 91 83 66 60 67 73 69 62 58 61 57 50 46 41 32 20 10 6
40 45 42 40 44 54 42 36 45 50 64 47 25 26 51 56 60 62 62 62 71 77 84 88 89 91 84 76 83 96 95 98 81 77 69 66 52 45 33 21 9 6 6 6
41 43 42 41 46 36 42 44 49 40 43 51 52 34 39 48 53 57 60 61 74 79 65 89 94 80 87 81 86 94 97 99 88 73 64 51 41 26 17 8 7 7 8 8
14 41 35 33 31 25 45 46 48 50 48 52 55 48 48 48 56 61 68 74 85 80 72 83 78 84 88 93 87 99 100 88 74 64 48 33 14 10 9 9 9 9 9 16
19 58 48 40 53 53 42 44 48 56 56 54 59 44 49 49 63 74 83 72 81 91 94 82 85 93 90 77 71 85 80 81 70 52 36 16 17 15 12 11 10 11 17 44
21 56 47 46 38 38 37 37 39 41 49 56 58 54 48 48 74 78 75 81 84 87 84 88 89 89 75 71 90 88 90 88 80 38 27 31 24 22 26 17 17 27 57 81
23 50 54 44 42 41 41 42 43 44 44 44 46 46 50 65 69 69 77 77 69 74 78 67 91 83 67 68 74 89 93 95 82 59 54 51 69 53 54 56 38 63 87 89
32 48 30 23 44 45 35 39 52 48 45 46 55 54 55 62 66 70 70 75 68 67 69 94 99 71 65 93 97 97 97 87 90 94 80 80 95 96 98 68 58 75 85 80
50 30 32 33 30 28 58 47 50 51 51 56 57 61 59 72 83 83 71 68 72 80 84 84 61 84 100 98 96 90 100 98 87 94 92 97 94 76 62 57 70 88 80 82
34 34 36 35 39 74 55 49 53 59 57 59 60 62 78 99 92 76 72 84 94 82 71 59 92 98 88 84 73 85 96 82 83 82 89 85 96 89 64 64 73 91 89 70
64 39 37 44 78 52 56 66 59 63 56 72 76 84 88 75 74 66 78 91 82 56 58 70 82 80 92 91 97 93 85 78 89 99 89 87 98 97 87 52 95 100 94 71
36 39 47 69 88 75 59 67 72 68 74 93 96 96 86 80 78 69 64 80 63 60 63 78 94 98 94 98 97 96 79 85 99 88 96 87 90 90 90 68 96 97 96 80
40 45 60 100 98 86 68 74 68 77 92 91 82 84 88 95 80 70 67 62 68 85 90 84 81 83 91 90 83 84 75 83 81 82 84 73 58 62 86 85 98 98 87 49
52 58 63 91 96 86 78 86 94 86 84 94 89 97 97 84 73 68 69 62 90 85 77 70 67 66 72 84 85 81 86 72 65 58 58 58 67 76 91 97 92 76 40 23
63 61 73 78 64 80 95 98 91 80 89 98 96 99 93 81 72 70 74 91 79 71 54 38 56 51 65 78 96 97 99 68 67 70 64 67 88 98 98 98 97 46 23 35
48 55 70 77 76 87 94 76 79 77 92 92 96 86 72 64 65 82 84 71 53 34 42 78 55 87 100 99 100 99 77 67 74 67 70 92 94 98 100 78 35 22 32 41
46 58 59 78 86 97 98 91 90 83 94 98 81 74 65 67 81 62 55 54 50 63 69 39 91 93 78 65 80 67 65 68 66 80 92 92 98 93 62 24 22 30 37 50
27 33 51 79 96 97 90 93 96 97 93 91 76 66 63 51 48 30 24 17 17 17 21 28 52 51 30 47 55 59 61 70 77 92 89 90 50 23 19 24 28 32 42 51

GFSCGP_700_rhum_027.txt.gz
RH
24 29 28 23 21 19 19 18 19 24 24 22 19 19 27 27 28 30 28 27 30 30 32 47 55 60 70 72 68 58 41 37 41 54 57 58 60 63 65 73 82 89 78 82
27 26 28 24 16 18 21 22 27 25 28 20 24 26 27 29 31 32 32 33 34 32 33 45 52 53 54 59 65 39 36 45 52 55 56 58 64 66 66 67 66 68 79 86
21 28 12 24 27 19 30 25 29 30 29 29 20 29 29 32 33 37 41 44 40 38 41 48 60 58 61 49 41 40 44 53 55 51 52 58 62 67 72 77 84 90 89 86
29 28 21 21 31 25 35 33 30 30 26 32 29 31 33 36 38 44 50 53 52 48 42 41 44 39 39 40 42 48 53 53 48 38 39 51 66 73 68 53 49 48 47 45
31 33 36 35 37 35 36 34 25 26 27 36 28 29 36 40 45 43 45 50 49 47 44 45 43 44 44 47 51 54 49 38 34 32 35 44 48 48 47 47 47 47 47 46
34 34 30 36 28 38 38 39 40 39 39 44 40 38 39 40 44 51 54 52 55 58 68 59 49 47 49 51 47 37 32 43 55 61 56 57 54 52 52 51 51 51 46 48
39 41 32 29 42 44 41 40 48 58 74 62 43 44 53 43 43 46 52 61 62 63 66 68 78 86 80 62 44 44 42 48 52 56 58 62 66 71 75 71 64 49 43 39
40 46 44 25 37 42 40 44 49 62 83 58 40 50 58 52 59 65 67 63 54 75 72 74 68 80 90 97 93 75 70 67 64 52 45 48 56 64 67 64 47 40 37 15
44 47 36 25 17 36 39 49 38 42 55 54 38 56 58 56 58 72 75 75 77 76 78 71 81 70 80 76 81 75 79 78 86 83 68 78 76 69 60 50 42 21 10 8
51 45 40 43 48 42 47 34 43 48 64 59 41 56 58 62 64 68 74 74 67 72 80 78 71 69 68 75 74 65 70 79 84 81 80 80 74 65 53 40 23 18 12 12
44 44 36 44 38 28 42 44 45 44 45 64 79 47 53 62 69 70 73 68 71 74 80 76 69 79 81 75 71 84 82 77 76 73 74 80 73 54 33 26 26 23 27 18
23 43 38 40 36 32 33 44 48 48 50 54 57 51 41 47 51 62 66 71 73 80 80 80 86 78 65 76 86 100 70 67 56 62 70 67 50 39 43 41 40 42 38 30
22 29 44 41 50 42 37 42 42 46 49 50 51 39 46 60 65 76 77 74 77 82 86 86 82 82 81 91 98 94 64 55 64 70 62 86 50 47 48 39 45 43 71 33
21 25 37 44 44 41 37 36 37 41 51 49 52 48 45 58 74 75 76 74 77 80 80 87 81 67 63 87 96 61 49 49 67 76 60 67 84 83 71 65 79 77 64 38
19 30 36 37 32 28 39 34 40 43 44 46 45 50 62 67 70 70 70 73 78 80 75 62 56 64 67 64 53 46 58 76 78 67 84 96 92 78 82 94 93 89 88 45
17 26 28 18 39 41 28 29 44 48 50 50 53 52 56 62 68 72 72 72 77 72 52 38 62 66 50 48 51 73 82 83 100 99 96 89 78 94 92 96 95 97 94 49
23 20 19 20 32 25 53 54 54 52 52 55 57 58 58 62 62 66 71 76 72 65 43 61 66 48 60 94 100 96 97 100 94 98 94 93 78 81 89 89 96 96 95 62
25 20 23 26 28 54 53 52 48 48 59 58 60 62 68 72 74 80 83 74 71 49 55 54 47 70 93 98 90 83 71 69 89 99 71 44 86 91 94 98 96 96 98 92
20 23 29 33 47 33 42 59 58 56 59 56 59 66 74 77 87 89 80 78 60 47 46 65 87 74 68 73 83 91 94 95 76 44 49 65 67 75 74 88 79 92 98 97
25 30 39 45 50 76 63 67 66 67 61 61 63 70 77 76 74 79 78 75 57 47 52 54 46 54 62 53 55 56 55 35 46 59 80 74 58 59 54 62 70 82 95 92
41 40 51 59 66 46 43 52 57 77 59 63 68 72 78 85 80 93 86 65 52 51 49 41 41 41 28 20 15 24 48 58 78 91 74 66 64 62 60 84 96 96 94 83
41 39 47 74 92 78 58 61 71 69 73 74 84 81 92 95 95 79 63 56 49 41 36 27 19 12 12 16 27 58 64 58 58 70 76 68 64 72 76 80 96 100 99 56
57 40 50 53 40 48 66 74 82 85 87 93 87 81 93 93 76 66 53 46 48 31 20 13 12 12 18 22 54 64 62 65 63 64 66 68 75 77 81 85 100 92 27 25
58 60 65 75 68 72 82 84 89 89 91 96 95 95 92 83 65 55 45 30 20 16 12 12 12 12 15 21 27 36 42 57 58 60 62 71 76 74 80 81 43 22 27 34
23 32 36 50 55 62 81 84 91 94 96 96 95 88 82 69 57 36 27 18 13 10 10 11 11 12 19 22 28 41 50 52 59 54 64 75 76 59 19 17 19 25 30 34
21 28 38 41 41 50 60 74 96 96 98 92 83 85 74 57 34 26 16 13 10 10 10 11 12 16 20 24 35 44 53 54 58 54 70 75 59 18 17 20 24 28 29 36

GFSCGP_700_rhum_030.txt.gz
RH
23 28 28 25 22 20 22 21 22 24 23 21 20 23 24 25 28 29 28 27 26 27 37 58 70 61 70 70 74 82 85 80 50 56 64 64 65 66 69 73 78 79 82 88
33 31 26 23 18 18 27 23 25 24 26 22 28 28 29 29 28 30 27 29 30 30 34 57 63 58 57 59 59 70 63 54 59 62 63 62 64 68 76 83 81 80 83 81
30 26 23 27 25 20 28 30 28 31 30 28 30 34 32 35 34 37 37 34 34 36 42 57 55 52 50 61 59 51 48 52 56 54 50 44 49 61 75 79 72 61 64 68
28 26 24 26 28 26 32 35 34 32 30 19 27 39 53 50 44 45 40 37 39 45 52 52 52 49 44 40 40 43 46 50 51 39 36 40 45 48 49 51 52 53 54 52
30 26 33 35 35 35 25 25 25 30 31 24 31 34 52 51 48 46 46 39 40 36 37 39 39 40 38 39 41 44 48 37 31 29 31 35 35 34 37 43 41 38 43 45
32 35 29 33 34 37 38 38 39 41 44 46 44 42 49 47 41 46 48 48 48 45 46 40 29 29 27 29 29 30 32 33 36 38 38 40 41 42 44 52 66 61 59 60
33 39 26 37 43 43 38 41 46 57 68 63 48 46 53 47 45 45 55 54 54 61 52 40 45 42 35 38 36 39 45 54 54 55 54 46 50 53 61 74 76 70 62 51
42 46 41 23 42 43 42 46 44 57 76 54 46 61 64 57 56 66 68 72 70 71 68 70 66 63 66 65 65 68 74 67 63 59 58 52 52 58 72 82 77 68 50 31
46 42 40 25 29 46 46 45 40 48 60 57 58 66 66 69 72 82 89 82 82 76 73 77 80 89 90 91 90 90 81 76 63 72 69 55 51 71 92 86 63 47 33 38
45 42 39 46 37 37 35 33 46 45 61 59 55 60 60 66 67 73 66 75 79 79 80 80 84 88 80 74 81 79 76 68 69 90 76 61 68 73 65 58 42 36 42 46
46 35 34 38 34 28 40 48 42 45 48 64 79 52 55 62 66 72 78 79 81 90 91 86 83 80 83 89 87 75 63 62 94 93 55 48 45 36 19 46 72 39 56 58
46 34 42 42 37 32 30 40 37 31 48 50 58 54 56 55 60 74 72 79 82 79 78 77 80 82 84 84 79 64 71 75 74 49 34 26 37 69 42 46 58 60 65 86
29 37 41 43 47 39 40 51 42 44 44 45 48 43 60 54 58 70 73 81 81 80 79 81 84 89 75 44 48 61 60 52 44 32 35 42 58 70 88 74 72 69 69 97
25 30 37 33 36 34 36 35 37 40 47 48 50 46 46 51 54 62 61 74 80 79 82 84 86 67 52 39 48 56 46 35 29 29 63 77 77 84 97 96 93 74 92 92
25 23 26 35 43 44 40 27 32 38 41 47 45 48 49 60 62 68 72 76 77 78 81 82 76 61 46 40 45 33 22 18 27 66 92 94 96 98 90 64 83 89 84 88
17 20 24 29 21 16 24 28 31 37 41 52 56 58 64 66 66 69 76 78 79 78 78 69 67 57 40 31 20 18 23 53 74 83 90 98 100 59 54 44 43 54 79 97
18 18 21 16 18 37 28 33 46 49 51 51 52 54 60 68 77 78 75 71 70 77 75 73 66 52 28 16 17 49 85 89 86 72 51 38 24 51 78 62 45 48 60 61
24 22 20 21 28 41 43 35 46 50 48 52 58 58 62 71 72 71 73 74 78 80 75 72 67 31 16 24 66 80 71 41 14 16 18 21 53 80 84 49 53 53 68 74
24 30 24 27 31 29 29 42 42 49 53 56 57 59 57 57 66 82 86 83 74 76 76 58 32 22 30 47 51 21 11 10 12 16 22 45 65 58 51 54 56 64 80 100
30 29 34 34 37 51 33 36 44 44 49 43 44 47 62 72 80 85 84 82 84 72 59 38 21 16 19 20 10 8 8 12 21 59 44 55 54 55 62 69 72 78 97 81
28 34 41 42 47 33 27 42 49 67 40 53 67 65 77 84 80 74 77 88 73 57 39 20 14 12 11 9 8 9 15 26 31 29 53 60 51 55 67 71 76 83 92 99
33 32 34 54 61 47 30 42 40 36 53 74 83 84 89 90 88 89 91 78 60 39 19 13 12 10 10 10 10 12 15 19 31 41 46 53 52 59 72 71 77 92 100 87
46 27 29 34 29 33 39 46 41 59 76 88 90 94 97 91 95 93 80 62 36 19 13 12 11 10 10 11 11 12 16 29 36 46 53 55 54 69 70 69 54 38 20 21
25 37 47 45 38 44 55 58 52 81 87 91 94 97 99 92 81 79 68 35 19 13 12 11 10 10 11 12 13 15 24 32 38 50 58 51 56 70 70 28 15 18 22 25
26 33 29 47 56 59 64 55 50 72 97 98 97 98 94 87 80 71 38 20 14 13 11 11 10 11 13 14 16 18 22 34 46 52 54 52 66 70 38 15 17 20 23 23
27 26 30 30 40 48 47 48 63 88 95 97 97 92 92 88 79 42 23 16 14 12 12 11 12 13 16 17 20 20 22 38 52 51 54 61 69 64 18 17 21 23 23 24

GFSCGP_700_rhum_033.txt.gz
RH
21 24 22 23 23 23 23 22 23 21 23 25 24 21 23 22 22 22 22 25 25 25 32 37 50 60 69 74 82 81 80 78 84 67 67 62 62 62 63 67 80 86 97 100
28 28 26 25 22 22 23 23 24 24 24 25 25 23 24 21 22 24 26 29 29 28 28 34 43 50 64 67 62 68 81 66 56 56 58 57 61 70 81 88 86 86 86 81
28 27 28 24 24 22 24 25 25 25 27 27 29 34 34 31 30 30 33 35 39 48 49 59 47 51 55 59 57 52 53 56 59 57 51 53 62 69 66 63 61 64 66 60
29 24 24 24 26 29 31 29 28 30 30 29 32 49 54 40 39 41 42 48 54 62 54 65 70 51 45 44 47 51 55 59 51 43 46 49 46 43 37 34 38 40 40 40
29 28 27 28 30 34 28 33 31 34 30 27 37 39 56 65 56 50 53 58 61 61 58 53 51 41 36 38 46 43 38 35 36 34 34 34 38 39 36 35 39 47 54 54
29 32 33 35 37 33 33 37 38 43 44 48 51 47 54 52 49 51 52 51 53 56 66 56 45 36 44 34 40 43 40 38 36 36 38 37 42 57 56 51 54 66 66 63
38 27 28 27 44 41 33 39 47 58 66 66 53 53 53 55 54 51 48 52 59 60 64 57 48 54 51 54 49 57 58 62 58 60 59 49 50 76 75 58 52 56 63 58
36 45 31 41 43 43 37 40 40 56 73 55 52 63 59 54 55 59 68 73 74 70 64 69 79 71 58 61 69 70 80 80 80 75 60 54 62 79 70 46 39 41 24 19
42 44 34 19 34 43 45 41 34 43 61 56 64 69 64 62 64 68 75 79 74 68 77 72 66 62 72 83 88 82 82 77 80 66 45 52 60 55 38 43 49 37 34 37
43 43 37 42 38 36 36 42 44 44 61 58 58 68 63 69 68 67 70 70 71 83 73 71 76 84 91 96 87 85 86 73 55 48 58 55 45 25 21 31 43 47 56 69
44 38 39 46 37 36 39 35 34 42 49 68 78 57 54 58 64 66 67 74 72 76 79 83 90 93 97 95 95 91 54 42 44 51 48 33 18 15 18 52 76 75 89 91
47 36 42 40 24 24 25 32 31 24 40 50 57 49 49 53 68 70 79 82 79 79 84 89 95 94 97 95 92 68 65 43 40 34 19 13 16 33 62 89 98 100 99 84
44 37 44 41 37 37 36 38 38 37 33 38 54 39 48 62 70 70 67 64 72 74 81 88 88 91 92 92 94 79 48 32 21 12 11 13 28 64 92 97 94 86 64 34
30 31 32 26 28 37 38 41 40 39 42 45 43 41 49 55 59 62 64 67 72 80 84 87 92 95 98 97 70 56 39 18 12 12 22 52 74 78 93 85 44 36 39 46
24 25 34 33 35 30 27 34 32 27 30 40 31 40 47 52 56 62 65 70 75 83 88 90 95 94 94 71 62 50 23 11 15 27 48 71 54 28 15 16 24 33 60 48
20 25 27 32 28 27 25 17 24 28 31 31 34 36 42 49 52 69 73 73 77 85 88 96 94 75 66 67 57 25 12 15 16 24 21 9 9 12 15 22 29 39 43 48
14 17 23 28 22 20 22 12 21 24 35 38 43 38 51 54 60 67 71 79 88 88 88 84 77 72 70 52 22 12 12 12 14 9 8 9 12 15 20 31 33 39 51 57
23 21 24 16 17 42 12 17 23 37 41 42 41 46 53 58 65 72 80 85 86 88 88 86 81 73 52 22 12 12 11 10 9 8 8 10 15 19 33 36 38 51 54 58
29 21 28 20 29 20 23 23 24 33 34 36 37 45 56 61 67 73 84 80 77 74 75 82 77 49 24 13 12 10 9 8 7 8 10 20 26 26 39 40 45 58 62 68
28 28 40 30 32 45 15 16 23 33 41 27 36 45 53 57 66 79 77 79 79 82 81 78 53 25 13 12 10 9 8 8 9 12 22 29 35 39 40 40 51 62 69 82
23 24 33 42 38 28 19 23 30 58 26 30 42 56 68 74 81 79 90 94 88 89 78 56 28 14 12 10 10 9 9 10 12 20 27 30 33 42 45 46 64 66 80 90
27 26 25 45 61 45 19 26 34 28 33 28 44 70 88 88 88 98 98 94 82 78 61 32 15 12 11 10 10 10 11 13 14 20 26 30 38 44 50 58 69 61 43 26
37 25 26 26 22 26 31 32 40 47 46 42 60 88 91 86 97 91 95 87 80 64 34 16 13 12 11 11 11 12 14 16 17 20 25 35 45 52 56 69 70 27 16 18
20 23 32 29 25 30 40 45 51 57 65 57 82 92 91 94 98 96 98 86 69 37 18 14 13 12 12 12 13 15 17 20 21 22 31 41 42 55 67 73 39 16 18 20
30 31 29 31 30 33 33 40 49 71 70 57 78 86 91 99 98 99 95 77 42 20 16 15 14 13 13 14 16 18 20 24 26 24 33 44 44 62 75 71 22 18 21 22
32 32 36 35 34 36 35 40 54 60 57 66 78 90 95 98 98 96 84 46 24 18 17 15 15 15 15 17 19 21 23 24 31 29 39 46 49 71 79 48 19 19 23 25

GFSCGP_700_rhum_036.txt.gz
RH
21 22 22 18 18 20 18 23 22 23 22 23 25 27 22 22 22 21 24 27 29 30 33 37 48 67 75 82 84 96 96 97 87 84 78 75 77 72 71 69 71 73 79 80
28 25 24 24 22 21 22 22 26 26 22 25 25 25 23 24 22 23 29 30 26 30 31 30 38 59 72 78 79 77 82 81 65 63 62 58 54 53 55 56 54 51 46 46
28 28 25 25 24 22 23 25 28 28 27 25 24 29 27 24 22 22 25 26 30 34 41 50 54 60 64 65 55 53 54 56 60 56 47 44 40 45 48 46 42 39 36 35
26 27 28 27 26 22 29 29 31 31 30 30 32 36 40 33 28 32 35 41 47 56 63 69 68 56 48 42 48 55 53 45 43 41 36 35 38 38 36 36 37 43 46 46
28 24 24 23 24 22 29 34 32 32 31 29 35 36 41 46 44 40 46 57 68 72 65 60 56 42 43 43 38 46 48 49 45 40 43 44 44 39 37 41 46 55 62 56
25 28 26 27 33 35 31 27 29 37 44 51 45 41 46 39 35 46 58 64 65 64 66 65 67 46 66 66 69 71 60 56 53 60 62 67 66 41 43 48 54 57 48 38
34 33 31 30 37 38 36 38 47 60 67 68 55 56 48 46 45 58 56 58 60 62 66 66 62 68 72 79 81 73 73 71 74 84 83 73 52 49 51 49 42 33 21 17
35 34 35 34 38 41 40 42 46 58 79 62 53 58 52 48 54 60 60 61 62 70 69 68 70 87 71 69 76 84 89 83 89 90 52 45 46 46 38 30 19 12 11 15
41 44 34 26 45 43 43 45 36 38 60 56 51 58 53 51 55 57 60 61 68 70 72 80 82 81 70 68 80 88 92 95 95 62 71 46 39 31 20 12 10 9 10 22
41 43 36 37 34 42 44 43 45 44 57 56 55 62 52 52 55 57 59 64 70 72 66 66 69 69 70 77 89 98 97 97 75 83 52 40 27 15 12 11 14 18 21 38
44 41 41 38 41 39 39 38 34 37 48 67 79 52 45 55 57 59 63 70 70 70 69 69 69 72 79 88 95 95 97 84 94 51 41 24 14 13 14 21 30 40 56 74
45 42 40 42 39 28 34 34 33 19 34 50 53 39 38 49 50 66 73 74 71 71 71 72 77 82 89 95 98 96 91 97 59 44 26 15 14 18 33 49 48 40 52 27
46 41 42 41 35 30 32 28 28 30 32 36 56 28 30 35 45 60 72 72 72 74 76 79 84 88 93 96 91 96 86 60 47 27 15 15 19 26 20 16 10 10 12 15
38 40 35 33 26 27 33 31 29 31 39 33 28 24 30 38 45 56 67 68 73 78 81 85 89 92 96 97 98 72 68 54 28 16 14 12 11 8 7 7 9 12 15 22
29 32 34 32 26 26 24 26 24 29 29 34 20 25 28 37 50 57 62 68 73 76 80 85 90 97 97 96 93 75 54 30 17 12 10 8 7 6 6 8 10 13 28 31
28 29 26 34 33 30 26 25 20 18 23 24 23 21 24 33 40 47 51 60 70 76 82 89 99 98 98 92 78 62 37 19 12 10 9 8 7 6 8 12 16 24 31 37
20 19 23 25 23 28 29 13 12 8 8 19 23 21 35 37 43 48 55 63 78 84 89 94 97 89 81 80 68 42 22 12 11 9 8 7 7 7 13 20 27 30 30 42
24 17 18 20 17 35 13 12 11 11 14 19 25 29 37 43 52 56 61 70 80 88 93 84 77 83 81 71 50 24 12 11 10 9 8 7 8 11 19 24 30 36 32 47
42 30 22 21 23 18 13 12 10 12 16 25 33 33 35 42 52 52 58 76 89 92 84 87 93 85 75 55 26 13 12 11 10 9 9 9 10 14 21 28 34 39 40 54
45 46 39 31 27 45 14 11 13 17 28 23 27 30 30 43 52 54 76 87 96 89 94 97 96 82 61 30 13 13 12 11 10 10 11 12 13 16 25 31 39 46 55 64
30 27 30 39 44 28 16 16 19 35 22 27 27 28 23 36 59 70 78 84 88 92 96 94 90 67 33 15 13 13 12 12 11 12 14 16 17 18 30 32 41 54 67 56
34 28 26 37 57 42 18 22 25 24 30 30 36 38 38 49 80 83 88 87 98 98 95 95 79 36 16 14 14 14 13 12 13 16 18 21 21 22 35 35 46 65 68 30
38 29 28 25 19 20 25 28 32 35 42 42 46 48 56 70 83 90 91 99 98 96 96 89 37 17 16 15 14 14 14 14 16 18 20 22 27 27 39 38 54 70 52 19
23 22 27 27 21 24 30 36 41 49 56 64 69 76 74 92 87 92 92 99 97 96 95 40 19 18 18 16 15 15 15 17 20 22 24 27 32 31 44 45 65 72 37 20
30 28 30 32 32 35 35 35 36 39 43 52 77 81 81 94 99 100 100 97 96 93 44 22 21 21 18 17 16 16 17 19 23 25 28 36 38 37 54 56 74 69 26 20
32 36 41 41 40 44 43 45 41 40 43 54 65 78 100 98 98 98 97 95 94 74 34 25 23 19 17 15 14 16 19 21 27 32 37 41 43 45 66 76 86 60 23 20

GFSCGP_700_rhum_039.txt.gz
RH
26 24 19 16 17 18 18 20 21 22 22 23 25 25 27 25 24 21 21 24 26 30 35 44 54 66 74 74 76 86 88 99 98 70 64 66 70 70 60 52 46 48 45 44
23 22 21 18 20 23 23 23 24 26 24 23 24 25 25 22 22 24 22 27 30 34 43 47 57 47 58 73 76 78 83 84 60 58 55 47 45 43 41 40 42 40 42 43
21 24 24 24 22 22 22 23 26 26 25 24 25 25 24 23 22 24 24 28 34 45 39 40 51 60 66 68 62 56 54 51 46 48 49 52 52 51 49 40 38 40 39 38
28 28 28 30 27 21 26 30 28 29 28 28 28 28 25 24 24 24 24 24 30 39 53 63 65 62 55 46 42 51 47 56 55 54 53 62 58 55 52 44 42 41 36 34
28 28 28 29 25 21 27 35 33 33 32 31 32 35 31 30 29 25 23 31 49 65 71 60 57 54 42 43 48 77 77 70 67 62 61 76 66 54 59 48 45 38 34 27
26 28 28 26 24 29 31 32 34 37 39 45 34 36 35 32 29 34 39 52 67 75 68 67 72 56 59 66 77 76 78 79 69 73 78 86 68 70 58 47 42 34 21 13
32 31 28 30 33 36 32 30 43 45 56 51 52 55 38 40 39 42 48 58 68 71 68 69 64 61 73 89 89 74 77 76 80 83 86 90 77 72 48 42 30 16 12 11
33 30 26 26 32 34 39 39 42 54 63 56 55 58 47 47 45 49 65 66 66 65 65 66 68 75 84 82 69 73 84 87 92 96 98 89 88 54 42 27 16 13 10 8
33 36 33 30 38 44 43 44 40 38 57 54 44 48 40 38 41 49 64 66 64 65 68 71 70 66 67 70 72 81 91 95 100 99 96 93 72 43 29 18 12 9 7 6
33 40 39 32 31 45 41 41 41 42 55 48 45 47 30 29 38 48 55 60 62 63 70 74 67 65 68 73 79 91 97 99 99 97 95 76 49 36 18 12 9 8 6 6
38 41 44 38 35 33 40 46 32 32 42 45 53 32 23 26 43 49 53 55 61 67 71 62 64 67 76 80 90 95 98 99 100 96 75 53 36 18 12 10 8 7 6 6
44 45 40 41 37 37 39 36 33 24 30 46 49 30 22 23 31 48 62 66 68 68 66 68 70 74 77 83 94 99 99 98 96 85 60 37 19 13 9 8 7 6 6 7
44 45 41 45 43 38 32 28 24 28 25 27 52 21 23 23 29 38 56 67 72 72 74 77 79 78 84 97 99 96 93 98 89 68 36 21 12 10 8 7 6 6 7 10
42 46 41 39 31 29 30 23 28 33 28 24 22 16 16 23 27 38 50 59 67 76 78 80 80 83 97 99 93 98 96 79 63 39 20 12 10 9 8 7 6 7 10 13
36 40 43 38 34 25 23 22 26 30 27 26 11 15 14 20 27 30 47 60 62 75 78 80 84 96 98 98 99 87 80 73 51 20 13 11 11 10 8 7 7 9 12 16
40 30 26 31 34 32 29 27 24 21 20 18 17 8 14 24 28 33 41 51 62 70 76 82 91 98 99 99 87 90 92 61 28 15 12 12 11 10 8 8 9 10 14 20
35 31 28 30 27 34 37 18 17 15 12 13 15 8 18 26 29 34 46 53 60 68 79 89 98 99 98 89 97 90 65 37 18 13 13 12 11 10 10 10 11 12 18 21
24 21 20 21 20 36 12 12 12 12 11 9 9 13 21 33 36 34 40 50 58 73 90 97 99 94 94 97 96 78 46 18 13 13 13 12 12 11 11 12 14 15 22 23
41 30 24 23 24 18 15 14 13 13 12 11 13 21 31 34 32 28 38 56 68 79 94 99 99 98 99 96 93 51 20 14 14 14 14 13 12 12 14 16 17 19 24 28
52 51 51 39 30 42 18 14 13 12 19 14 19 32 31 26 25 28 42 61 74 86 95 99 99 98 100 96 73 23 15 16 15 15 15 13 13 15 18 21 22 23 28 40
36 35 36 39 44 30 19 18 18 26 21 24 26 27 30 30 31 32 39 60 73 80 86 100 100 97 96 86 36 16 17 17 16 16 14 15 17 19 21 25 26 29 33 56
43 36 31 32 44 37 21 23 28 30 28 31 33 33 30 36 42 57 66 78 84 92 99 98 98 97 87 30 18 25 22 17 16 15 14 16 20 22 24 32 31 37 41 64
43 38 34 29 23 23 26 29 31 32 42 44 50 57 64 68 76 79 90 94 86 100 96 99 95 71 39 25 43 38 18 16 13 12 14 18 23 26 32 36 37 46 53 72
33 28 27 26 23 28 35 37 38 40 43 52 58 67 76 85 93 95 97 98 98 98 98 96 80 54 45 64 42 27 14 9 10 14 18 22 28 31 36 41 44 59 69 79
33 30 30 35 37 45 40 42 45 46 47 48 50 56 69 88 99 99 97 98 99 98 94 87 52 76 73 40 22 10 8 11 15 19 24 32 30 32 40 47 54 70 82 78
34 43 46 46 49 53 51 53 52 53 54 55 56 60 69 92 92 93 99 98 98 96 77 89 91 57 40 15 8 10 12 16 20 26 32 31 30 36 44 50 61 80 84 61

GFSCGP_700_rhum_042.txt.gz
RH
30 29 21 20 20 17 21 21 18 21 14 25 23 19 21 23 22 22 28 29 32 40 49 54 64 70 73 77 83 90 97 82 95 83 63 61 58 54 46 39 36 35 34 33
25 25 18 18 17 20 22 24 26 20 18 20 24 25 26 26 24 24 24 30 34 36 42 49 56 61 65 66 80 84 87 82 61 58 46 40 40 46 51 53 52 49 48 46
27 24 21 20 22 23 25 28 29 29 24 24 30 38 24 24 23 21 26 26 29 37 39 48 47 46 56 65 68 68 52 51 47 50 48 50 60 63 58 59 64 56 51 47
27 22 24 25 26 27 29 24 25 25 30 23 26 20 39 24 24 22 22 27 32 35 42 40 50 60 61 58 49 44 47 64 67 67 65 71 86 94 71 69 71 55 48 42
31 28 29 33 28 21 33 26 32 31 31 31 32 27 32 29 28 26 24 27 32 32 37 52 60 55 52 47 43 47 68 72 74 85 78 83 88 92 80 80 71 51 42 28
28 28 30 28 26 27 28 34 35 37 38 30 28 33 17 32 42 38 29 28 28 40 54 60 58 61 56 54 60 78 84 77 78 83 84 89 97 94 91 88 65 43 27 16
37 38 31 29 37 35 37 35 26 33 35 30 46 41 24 34 30 34 36 39 45 56 67 63 69 64 58 75 84 81 83 80 83 89 93 99 97 94 95 83 47 29 16 11
30 37 36 30 40 37 41 35 28 28 32 30 53 36 39 38 40 44 46 58 60 65 70 69 66 68 79 84 84 77 78 86 88 93 95 93 97 94 91 52 33 19 13 9
35 38 30 28 28 33 41 39 41 47 46 49 30 40 40 39 40 40 49 62 69 69 68 67 68 74 65 64 70 76 82 86 91 96 93 98 96 96 69 39 21 13 9 8
28 42 36 29 28 39 43 41 43 42 43 30 20 28 23 29 29 36 48 54 66 67 66 67 72 71 68 69 77 84 90 95 96 97 96 96 98 78 40 21 16 10 8 7
30 30 46 40 41 39 45 47 40 39 39 27 25 17 16 18 20 32 49 52 61 64 65 68 76 70 69 70 79 87 96 96 98 99 100 98 75 37 22 15 10 10 8 7
33 42 50 45 39 32 32 45 42 29 33 51 50 21 15 13 14 22 38 56 64 63 66 71 75 72 74 79 84 89 91 96 99 100 97 68 42 24 16 11 11 10 9 7
34 46 48 48 46 41 43 38 37 29 21 39 53 18 13 14 15 19 28 41 51 63 68 73 76 75 77 82 83 92 95 99 100 94 72 64 33 18 12 12 12 11 8 7
38 45 43 36 34 38 44 37 32 33 40 27 30 17 23 18 18 21 24 31 43 57 70 76 78 77 81 88 90 96 99 98 86 82 81 38 19 13 13 13 12 10 9 9
40 46 43 44 41 37 30 31 29 33 30 39 19 21 18 28 20 22 24 28 39 55 64 70 74 83 87 92 96 99 98 88 86 79 47 21 14 14 14 14 12 10 10 11
48 45 34 34 39 39 34 28 26 23 32 37 29 24 24 19 17 22 24 29 36 47 63 72 81 87 91 97 99 99 91 93 91 55 24 15 15 15 14 14 12 11 12 13
50 45 37 41 27 32 38 21 22 20 17 17 35 23 30 17 18 30 30 29 36 49 58 67 80 88 95 100 99 96 97 97 90 33 16 16 16 15 15 14 12 13 14 16
41 41 33 26 21 62 22 14 13 15 14 14 12 13 15 20 25 36 34 30 36 47 56 71 84 94 100 98 91 97 96 91 45 33 17 20 16 16 15 13 13 15 18 22
33 26 23 24 38 27 18 18 16 15 14 12 12 15 17 26 35 29 24 23 33 48 65 79 93 100 100 98 98 98 95 79 49 28 41 17 16 15 12 12 16 19 22 26
55 49 38 39 44 83 23 17 16 17 37 17 18 18 21 28 30 42 31 29 36 56 70 82 95 99 93 98 98 96 88 36 37 58 20 17 14 9 10 14 19 22 28 31
47 54 53 53 50 34 26 24 23 37 36 29 28 29 28 32 38 34 36 46 54 66 73 82 89 97 100 99 96 51 22 51 83 31 18 11 8 9 13 18 23 28 34 37
45 40 37 36 43 48 23 26 29 33 27 32 40 42 41 44 50 53 61 69 74 86 97 97 95 99 99 98 64 37 66 71 37 18 8 8 9 13 18 24 28 32 38 42
47 41 37 35 37 26 29 30 34 35 34 36 47 52 57 62 67 72 78 89 91 89 96 98 98 97 97 88 69 94 61 36 12 7 8 10 12 19 25 24 28 35 43 46
42 38 36 32 30 30 35 38 40 41 41 41 41 42 46 51 51 62 87 94 97 98 99 99 98 95 84 93 82 53 29 8 8 9 10 14 22 27 26 27 32 39 46 58
46 41 35 33 35 40 42 44 48 51 54 55 55 57 59 60 61 74 95 97 91 100 100 97 93 91 95 90 61 23 8 9 10 12 16 25 26 28 28 33 38 45 49 65
44 37 41 43 43 49 54 56 58 58 57 56 54 53 56 69 84 91 92 100 99 98 96 96 95 94 88 62 28 10 10 12 15 17 27 30 30 33 34 39 42 47 56 67

GFSCGP_700_rhum_045.txt.gz
RH
32 34 28 30 23 22 21 15 15 15 17 16 17 23 34 30 46 52 62 68 70 78 57 55 58 63 70 72 74 81 84 88 97 89 48 46 76 77 62 47 38 36 36 49
35 36 31 23 19 19 18 22 17 19 19 22 20 24 33 41 43 47 55 67 78 88 47 60 62 65 68 71 75 78 83 86 89 54 42 43 42 38 39 45 49 55 58 60
37 33 21 23 21 20 21 20 34 23 26 22 25 25 37 32 47 52 59 63 73 87 60 47 53 53 54 54 59 67 76 64 46 49 49 46 47 59 66 65 67 70 73 68
41 37 28 24 23 23 25 24 25 24 26 23 26 20 30 41 30 23 26 68 81 91 93 40 47 39 41 56 64 61 48 48 63 68 74 79 75 84 92 91 86 87 81 63
32 28 24 23 29 25 39 22 28 24 21 23 26 20 28 40 43 37 27 37 87 94 70 45 41 43 59 58 52 45 45 60 70 71 76 78 82 87 94 92 88 92 77 57
34 36 32 35 27 26 26 32 31 27 23 26 20 22 18 29 33 46 65 76 93 72 57 46 50 60 55 53 54 50 52 78 78 79 72 80 86 94 94 92 97 95 62 39
32 32 34 28 34 37 33 30 31 32 26 28 30 28 17 24 38 36 60 79 88 70 44 52 57 57 60 60 61 76 80 73 72 72 79 85 88 91 89 96 100 96 53 28
28 33 32 34 33 33 32 28 25 27 25 22 33 19 30 32 26 36 70 84 84 53 55 64 62 64 63 69 73 72 75 70 73 78 86 89 89 93 90 99 94 54 34 23
31 30 36 32 40 33 33 28 35 34 36 36 19 21 37 28 44 39 73 89 94 78 62 68 66 66 65 73 68 63 74 78 74 83 90 90 95 97 99 94 58 38 24 13
31 30 38 36 34 29 33 39 32 31 36 27 14 15 21 38 43 37 65 85 94 85 74 79 86 66 69 74 70 63 76 82 82 89 90 91 95 99 92 62 44 24 15 13
28 29 41 41 34 26 40 35 32 32 34 31 22 18 26 29 38 47 58 76 86 83 89 92 95 82 70 77 72 74 79 84 86 92 99 100 100 93 70 45 25 15 14 13
33 33 31 37 37 35 36 32 33 32 28 33 43 22 21 25 35 39 51 68 75 83 88 95 99 84 69 77 81 78 80 85 91 99 100 99 90 78 53 34 18 14 14 14
45 32 29 36 41 42 40 36 33 33 38 33 45 26 30 21 11 20 36 55 68 76 84 95 85 66 72 79 83 81 84 89 91 96 99 93 83 66 42 20 14 14 15 14
33 30 32 32 28 35 43 38 36 36 37 29 22 21 22 32 33 36 44 46 58 72 83 75 60 66 75 80 84 88 88 94 90 100 98 94 82 54 24 15 15 16 15 13
44 45 37 36 41 42 37 34 34 38 36 30 27 20 14 16 21 30 37 47 54 70 26 40 54 67 76 79 86 90 96 97 96 98 96 94 87 33 16 18 20 16 14 10
44 49 50 49 46 47 42 39 36 32 33 26 23 23 24 30 30 36 33 45 51 57 31 41 55 76 79 82 86 97 98 94 100 97 98 96 36 41 55 56 16 15 10 10
65 59 57 49 47 40 36 23 28 30 30 32 31 28 32 37 38 40 44 46 33 31 35 44 55 74 81 88 97 99 99 96 98 99 96 61 66 62 46 21 16 10 10 11
47 55 61 51 29 66 25 25 22 24 26 28 30 31 32 36 42 40 47 60 41 28 31 44 56 65 73 90 99 99 93 98 100 96 80 52 60 71 36 16 9 9 11 14
48 56 40 40 38 32 29 24 22 30 21 29 38 32 35 25 21 28 46 33 30 26 29 45 58 64 81 96 100 100 99 98 98 95 74 87 74 25 14 8 9 12 14 18
41 34 44 33 55 85 42 23 18 17 33 37 33 39 33 18 46 44 51 42 30 29 39 54 56 64 89 100 100 100 100 99 96 76 91 72 46 11 7 8 10 14 17 18
59 56 53 65 72 54 46 32 26 37 49 33 21 46 45 45 59 45 42 39 41 52 63 67 73 87 96 94 99 100 96 86 71 89 83 44 8 7 8 9 14 18 19 21
43 45 46 78 71 59 40 28 40 55 31 30 28 43 36 45 46 48 55 61 68 79 82 86 89 92 93 100 100 96 85 91 91 67 43 22 8 9 10 13 18 22 24 27
62 62 65 50 53 49 24 33 32 28 29 34 37 38 43 42 53 51 59 62 69 82 94 91 99 96 100 98 96 96 94 94 85 46 29 17 10 12 14 18 22 27 29 35
55 46 43 41 48 53 45 31 33 37 41 43 47 48 52 53 57 59 63 64 72 83 96 100 100 100 97 98 95 95 94 85 52 33 13 11 13 15 21 27 29 30 34 43
58 50 48 44 49 50 58 45 41 48 53 56 56 54 55 58 59 63 70 71 80 88 100 100 99 97 95 94 95 91 77 44 17 12 13 14 17 23 29 36 37 38 45 50
56 66 56 70 51 42 64 44 50 56 59 59 60 61 62 64 66 71 82 97 100 100 100 98 96 94 93 85 64 46 28 15 14 14 16 18 22 26 37 49 49 52 53 56

GFSCGP_700_rhum_048.txt.gz
RH
45 42 34 35 27 25 26 23 25 21 22 20 18 26 26 33 43 54 56 56 56 57 58 58 44 52 71 58 60 67 78 84 84 90 93 63 35 38 39 44 66 49 37 41
40 43 34 33 30 26 20 24 22 16 17 15 17 17 27 30 37 47 57 62 64 69 64 38 48 53 56 62 61 68 75 81 90 89 79 42 45 52 57 47 48 52 50 55
39 50 47 41 31 21 20 30 23 32 19 18 21 18 28 34 36 39 48 58 68 74 80 58 52 59 62 64 64 71 76 80 80 65 44 52 58 54 49 55 58 63 74 71
45 42 41 36 24 22 24 39 28 33 26 21 30 34 29 32 38 41 43 51 59 70 84 75 52 45 49 58 61 63 65 68 50 47 59 66 77 68 76 78 82 77 74 78
46 45 35 30 26 28 28 30 30 24 20 27 27 43 41 37 35 40 52 55 58 68 82 98 96 71 48 42 57 65 54 48 47 75 74 77 84 99 99 97 92 89 93 88
34 44 39 35 30 26 32 30 29 26 28 33 30 40 43 44 44 46 56 59 68 78 92 98 100 98 50 45 56 52 51 50 53 79 76 75 74 80 88 87 84 84 96 99
34 28 34 34 27 30 28 26 31 71 72 41 19 26 20 42 44 43 53 69 75 93 92 85 84 81 72 59 54 56 61 69 65 72 67 72 77 85 90 92 97 94 99 76
40 38 34 27 25 31 36 29 49 58 62 41 32 23 33 34 29 28 56 66 81 78 77 79 68 62 58 57 61 66 72 70 56 58 62 70 78 89 92 95 96 99 86 56
33 40 42 35 28 32 36 32 34 28 31 38 22 15 40 36 17 14 61 73 76 82 78 78 76 77 65 63 62 71 73 68 57 64 66 75 85 91 100 99 99 96 66 46
30 48 55 40 30 27 25 30 32 27 39 38 19 17 42 39 40 15 58 75 85 83 88 82 86 85 86 70 66 72 74 72 70 67 69 87 91 100 99 99 99 72 50 32
34 34 47 38 34 22 39 37 27 23 29 47 50 27 24 28 36 33 48 68 82 70 65 72 88 94 92 96 86 69 74 88 91 78 84 89 98 100 99 98 90 57 38 23
30 31 30 34 32 32 33 33 30 33 34 33 34 39 24 27 22 30 44 58 75 81 67 80 90 97 96 100 100 98 82 93 88 89 84 99 100 100 100 97 72 44 26 18
34 36 32 31 32 38 37 28 28 29 36 37 57 32 31 30 22 22 29 47 63 75 82 86 92 96 98 100 98 93 81 87 88 86 98 100 99 99 100 88 56 32 20 60
37 41 34 33 28 33 36 39 30 32 38 39 35 26 23 25 31 32 34 36 48 60 72 78 86 96 100 99 91 98 98 86 85 100 100 100 98 100 99 92 59 39 71 48
33 38 30 27 29 30 37 36 31 31 33 36 37 30 24 18 24 26 30 36 41 47 59 70 81 93 99 93 94 100 96 83 98 100 100 100 98 100 97 77 55 77 63 31
32 46 42 48 47 40 42 38 34 32 32 28 30 28 26 26 32 30 33 32 35 46 53 68 66 87 87 97 98 93 92 99 100 100 100 99 100 96 91 68 72 82 56 9
56 50 61 57 50 46 40 32 26 31 31 30 30 30 30 30 32 36 38 42 47 47 56 70 78 94 100 100 100 93 97 100 99 100 99 100 96 71 49 71 90 46 9 7
67 66 63 59 49 62 32 30 27 26 28 26 27 28 29 30 32 34 26 46 54 65 46 45 54 83 99 100 99 97 100 99 98 99 100 96 87 91 94 87 34 10 9 8
67 69 61 57 48 39 34 30 27 27 24 33 34 36 35 37 29 34 57 50 42 41 36 32 52 61 72 80 86 92 100 100 100 98 99 98 93 95 84 46 40 23 12 12
48 62 59 35 59 84 44 37 28 22 28 41 40 44 31 32 47 52 54 52 53 40 38 44 45 51 61 71 79 87 94 100 100 98 96 96 94 93 80 60 42 18 12 15
56 47 52 62 50 55 48 46 37 37 55 50 39 24 33 39 59 47 49 48 45 52 59 59 63 78 82 82 85 91 97 98 95 97 95 95 94 82 52 34 14 12 16 20
41 52 55 72 89 72 51 45 38 62 62 38 25 28 46 35 40 44 40 54 57 62 63 71 82 80 82 87 86 98 98 96 96 95 93 73 48 33 16 12 13 16 16 26
56 58 60 52 58 51 49 53 59 37 30 28 30 36 39 44 49 80 68 62 67 65 61 64 72 84 95 98 100 99 96 95 94 85 58 41 20 12 13 15 16 20 23 35
62 61 59 59 46 55 57 62 43 32 32 38 43 43 51 55 62 76 94 80 61 57 72 95 100 100 100 97 95 95 92 80 58 41 22 13 13 14 16 18 18 21 28 34
64 62 50 55 50 57 62 62 47 47 44 47 53 54 56 61 66 68 68 74 89 100 100 100 98 96 95 95 88 64 35 30 26 14 12 14 16 19 20 20 22 27 41 57
60 61 57 66 65 60 73 64 52 45 47 54 59 65 69 66 72 77 87 99 100 100 99 96 95 92 59 24 22 25 19 13 12 14 18 20 22 22 22 21 19 36 62 70